• în România
  • Lista ţărilor
  • Pe 7 zile
  • Temperatura apei
  • Hartă satelitară
  • Meteo pe hartă
  • Widget-uri
  • user-avatar
    Intrare

    Meteo pe oră la Vitebsk

    Astăzi, 19 Septembrie, Miercuri

    Timp Temperatura Precipitaţii Vânt Presiune Umiditate
    00:00 +13°C° 0 mm 2 m/s 749 mmHg 92%
    01:00 +13°C° 0 mm 2 m/s 749 mmHg 93%
    02:00 +13°C° 0 mm 2 m/s 749 mmHg 94%
    03:00 +13°C° 0 mm 2 m/s 749 mmHg 94%
    04:00 +13°C° 0 mm 2 m/s 749 mmHg 94%
    05:00 +12°C° 0 mm 2 m/s 749 mmHg 95%
    06:00 +13°C° 0 mm 3 m/s 749 mmHg 90%
    07:00 +14°C° 0 mm 3 m/s 748 mmHg 86%
    08:00 +16°C° 0 mm 3 m/s 748 mmHg 81%
    09:00 +18°C° 0 mm 4 m/s 748 mmHg 76%
    10:00 +20°C° 0 mm 4 m/s 748 mmHg 71%
    11:00 +22°C° 0 mm 4 m/s 748 mmHg 66%
    12:00 +23°C° 0 mm 4 m/s 748 mmHg 63%
    13:00 +25°C° 0 mm 5 m/s 748 mmHg 60%
    14:00 +25°C° 0 mm 5 m/s 748 mmHg 58%
    15:00 +25°C° 0 mm 4 m/s 748 mmHg 62%
    16:00 +23°C° 0 mm 4 m/s 747 mmHg 66%
    17:00 +22°C° 0 mm 3 m/s 747 mmHg 71%
    18:00 +21°C° 0 mm 3 m/s 747 mmHg 76%
    19:00 +19°C° 0 mm 3 m/s 747 mmHg 82%
    20:00 +18°C° 0 mm 3 m/s 747 mmHg 87%
    21:00 +17°C° 0 mm 3 m/s 747 mmHg 89%
    22:00 +17°C° 0 mm 3 m/s 747 mmHg 92%
    23:00 +16°C° 0 mm 3 m/s 747 mmHg 94%

    Mâine, 20 Septembrie, Joi

    Timp Temperatura Precipitaţii Vânt Presiune Umiditate
    00:00 +16°C° 0 mm 3 m/s 747 mmHg 95%
    01:00 +16°C° 0 mm 2 m/s 748 mmHg 95%
    02:00 +16°C° 0 mm 2 m/s 748 mmHg 96%
    03:00 +15°C° 0 mm 2 m/s 748 mmHg 96%
    04:00 +15°C° 0 mm 2 m/s 748 mmHg 97%
    05:00 +15°C° 0 mm 2 m/s 748 mmHg 97%
    06:00 +16°C° 0 mm 2 m/s 748 mmHg 94%
    07:00 +16°C° 0 mm 2 m/s 748 mmHg 91%
    08:00 +17°C° 0 mm 2 m/s 749 mmHg 89%
    09:00 +19°C° 0 mm 2 m/s 749 mmHg 80%
    10:00 +20°C° 0 mm 2 m/s 749 mmHg 71%
    11:00 +22°C° 0 mm 3 m/s 749 mmHg 62%
    12:00 +24°C° 0 mm 3 m/s 749 mmHg 59%
    13:00 +24°C° 0 mm 3 m/s 749 mmHg 55%
    14:00 +25°C° 0 mm 3 m/s 749 mmHg 52%
    15:00 +24°C° 0 mm 2 m/s 749 mmHg 57%
    16:00 +23°C° 0 mm 2 m/s 749 mmHg 61%
    17:00 +21°C° 0 mm 2 m/s 749 mmHg 66%
    18:00 +21°C° 0 mm 1 m/s 749 mmHg 70%
    19:00 +19°C° 0 mm 1 m/s 749 mmHg 74%
    20:00 +18°C° 0 mm 1 m/s 749 mmHg 78%
    21:00 +18°C° 0 mm 1 m/s 749 mmHg 80%
    22:00 +16°C° 0 mm 1 m/s 749 mmHg 81%
    23:00 +16°C° 0 mm 1 m/s 749 mmHg 83%

    Poimâine, 21 Septembrie, Vineri

    Timp Temperatura Precipitaţii Vânt Presiune Umiditate
    00:00 +16°C° 0 mm 1 m/s 749 mmHg 85%
    01:00 +16°C° 0 mm 1 m/s 749 mmHg 88%
    02:00 +16°C° 0 mm 1 m/s 749 mmHg 91%
    03:00 +16°C° 0 mm 2 m/s 749 mmHg 92%
    04:00 +16°C° 0 mm 2 m/s 749 mmHg 93%
    05:00 +16°C° 0 mm 2 m/s 749 mmHg 95%
    06:00 +17°C° 0 mm 2 m/s 749 mmHg 92%
    07:00 +18°C° 0 mm 2 m/s 750 mmHg 89%
    08:00 +19°C° 0 mm 2 m/s 750 mmHg 86%
    09:00 +21°C° 0 mm 2 m/s 750 mmHg 80%
    10:00 +22°C° 0 mm 3 m/s 750 mmHg 74%
    11:00 +25°C° 0 mm 3 m/s 749 mmHg 67%
    12:00 +26°C° 0 mm 3 m/s 749 mmHg 64%
    13:00 +26°C° 0 mm 4 m/s 749 mmHg 61%
    14:00 +27°C° 0 mm 4 m/s 749 mmHg 58%
    15:00 +26°C° 0 mm 3 m/s 749 mmHg 62%
    16:00 +25°C° 0 mm 3 m/s 748 mmHg 66%
    17:00 +24°C° 0 mm 3 m/s 748 mmHg 69%
    18:00 +21°C° 0 mm 3 m/s 748 mmHg 72%
    19:00 +20°C° 0 mm 3 m/s 748 mmHg 75%
    20:00 +18°C° 0 mm 3 m/s 747 mmHg 78%
    21:00 +18°C° 0 mm 3 m/s 747 mmHg 76%
    22:00 +18°C° 0 mm 4 m/s 747 mmHg 74%
    23:00 +18°C° 0 mm 4 m/s 747 mmHg 72%

    22 Septembrie, Sâmbătă

    Timp Temperatura Precipitaţii Vânt Presiune Umiditate
    00:00 +18°C° 0 mm 4 m/s 746 mmHg 72%
    01:00 +18°C° 0 mm 4 m/s 746 mmHg 72%
    02:00 +17°C° 0 mm 5 m/s 746 mmHg 72%
    03:00 +17°C° 0 mm 5 m/s 745 mmHg 72%
    04:00 +16°C° 0 mm 5 m/s 745 mmHg 73%
    05:00 +16°C° 0 mm 5 m/s 744 mmHg 73%
    06:00 +17°C° 0 mm 6 m/s 744 mmHg 71%
    07:00 +17°C° 0 mm 6 m/s 743 mmHg 70%
    08:00 +19°C° 0 mm 6 m/s 743 mmHg 69%
    09:00 +19°C° 0 mm 6 m/s 743 mmHg 67%
    10:00 +20°C° 0 mm 6 m/s 744 mmHg 65%
    11:00 +21°C° 0 mm 6 m/s 744 mmHg 63%
    12:00 +19°C° 0 mm 6 m/s 744 mmHg 66%
    13:00 +16°C° 0 mm 5 m/s 745 mmHg 69%
    14:00 +14°C° 0 mm 4 m/s 745 mmHg 72%
    15:00 +13°C° 0.1 mm 4 m/s 745 mmHg 75%
    16:00 +12°C° 0.1 mm 3 m/s 745 mmHg 77%
    17:00 +12°C° 0.1 mm 3 m/s 746 mmHg 80%
    18:00 +11°C° 0.1 mm 3 m/s 746 mmHg 82%
    19:00 +11°C° 0.1 mm 3 m/s 746 mmHg 83%
    20:00 +11°C° 0.1 mm 3 m/s 746 mmHg 85%
    21:00 +10°C° 0.6 mm 3 m/s 746 mmHg 87%
    22:00 +10°C° 0.6 mm 3 m/s 746 mmHg 90%
    23:00 +10°C° 0.6 mm 3 m/s 746 mmHg 92%

    23 Septembrie, Duminică

    Timp Temperatura Precipitaţii Vânt Presiune Umiditate
    00:00 +9°C° 0.4 mm 2 m/s 746 mmHg 93%
    01:00 +9°C° 0.4 mm 2 m/s 746 mmHg 94%
    02:00 +9°C° 0.4 mm 2 m/s 746 mmHg 94%
    03:00 +9°C° 0.2 mm 2 m/s 746 mmHg 94%
    04:00 +9°C° 0.2 mm 2 m/s 745 mmHg 95%
    05:00 +9°C° 0.2 mm 2 m/s 745 mmHg 95%
    06:00 +9°C° 0 mm 2 m/s 745 mmHg 93%
    07:00 +9°C° 0 mm 2 m/s 745 mmHg 90%
    08:00 +9°C° 0 mm 3 m/s 744 mmHg 88%
    09:00 +11°C° 0 mm 3 m/s 744 mmHg 80%
    10:00 +12°C° 0 mm 3 m/s 744 mmHg 71%
    11:00 +14°C° 0 mm 4 m/s 744 mmHg 63%
    12:00 +14°C° 0.3 mm 4 m/s 744 mmHg 62%
    13:00 +14°C° 0.3 mm 4 m/s 744 mmHg 61%
    14:00 +14°C° 0.3 mm 5 m/s 744 mmHg 60%
    15:00 +14°C° 0.3 mm 4 m/s 744 mmHg 64%
    16:00 +13°C° 0.3 mm 4 m/s 744 mmHg 69%
    17:00 +12°C° 0.3 mm 3 m/s 744 mmHg 73%
    18:00 +11°C° 0 mm 3 m/s 744 mmHg 78%
    19:00 +9°C° 0 mm 3 m/s 744 mmHg 82%
    20:00 +8°C° 0 mm 3 m/s 744 mmHg 87%
    21:00 +8°C° 0 mm 3 m/s 744 mmHg 88%
    22:00 +7°C° 0 mm 3 m/s 744 mmHg 90%
    23:00 +7°C° 0 mm 3 m/s 744 mmHg 91%

    24 Septembrie, Luni

    Timp Temperatura Precipitaţii Vânt Presiune Umiditate
    00:00 +7°C° 0 mm 2 m/s 744 mmHg 93%
    01:00 +6°C° 0 mm 2 m/s 744 mmHg 94%
    02:00 +6°C° 0 mm 2 m/s 744 mmHg 95%
    03:00 +5°C° 0 mm 2 m/s 744 mmHg 95%
    04:00 +5°C° 0 mm 2 m/s 744 mmHg 95%
    05:00 +5°C° 0 mm 2 m/s 743 mmHg 94%
    06:00 +6°C° 0 mm 2 m/s 743 mmHg 90%
    07:00 +7°C° 0 mm 3 m/s 743 mmHg 87%
    08:00 +8°C° 0 mm 3 m/s 743 mmHg 83%
    09:00 +10°C° 0 mm 4 m/s 742 mmHg 76%
    10:00 +11°C° 0 mm 4 m/s 742 mmHg 70%
    11:00 +12°C° 0 mm 5 m/s 742 mmHg 63%
    12:00 +12°C° 0 mm 5 m/s 741 mmHg 62%
    13:00 +11°C° 0 mm 6 m/s 740 mmHg 61%
    14:00 +13°C° 0 mm 6 m/s 739 mmHg 60%
    15:00 +11°C° 0.2 mm 6 m/s 739 mmHg 66%
    16:00 +10°C° 0.2 mm 6 m/s 738 mmHg 72%
    17:00 +9°C° 0.2 mm 6 m/s 737 mmHg 77%
    18:00 +8°C° 1.3 mm 6 m/s 736 mmHg 82%
    19:00 +8°C° 1.3 mm 6 m/s 735 mmHg 86%
    20:00 +8°C° 1.3 mm 7 m/s 735 mmHg 90%
    21:00 +8°C° 1.5 mm 6 m/s 734 mmHg 91%
    22:00 +8°C° 1.5 mm 6 m/s 733 mmHg 92%
    23:00 +8°C° 1.5 mm 5 m/s 732 mmHg 93%
    Arată mai mult